Погода в Учаджи

Погода в Учаджи : погода сейчас, прогноз погоды и архив. Всё, что Вы хотите узнать о погоде в Учаджи!

Хотите узнать прогноз погоды в Учаджи? Тогда Вам сюда: Погода в Учаджи

Поиск расширенной информации на нашем сайте:

Полезная информация:

Другие новости

Новости СМИ2

Главная страница сайта

Новости сайта

03.07.2017

Напоминаем, что на нашем специализированном сайте Метеоцентр.Азия вы можете получить высокодетализированные автоматические прогнозы погоды по пунктам России, СНГ и мира в авиационном формате (включающие направление и скорость ветра, видимость, явления погоды, количество и форму облачности, нижнюю и верхнюю границу облачности).

Рекомендуем:

Погода в Учаджи - сегодня

Время (UTC), дата Ветер
(°,м/с) 
Видим.   Явления Облачность Т
(°С)
Тd
(°С)
f(%) Тe
(°С)
Pmin
(гПа)
dP
(гПа)
Po
(мм)
O2
(г/м3)
Тmin Tmax R s Состояние
почвы
00 16.03.19 160 (Ю) 10 км    ясно 
+17.4 +0.2 31 +17  1010.4  -1.2  741  281           
03 16.03.19 160 (Ю) 10 км    8/4 600 м средняя 
[Sc|Ac trans]
+16.8 +1.1 35 +16  1010.4  741  281  +16.4        сухая 
06 16.03.19 200 (Ю) 10 км    10/10 600 м 
[Sc]
+19 +2.9 34 +19  1011.3  742  279  +16.4         
09 16.03.19 200 (Ю) 10 км    10/10 600 м 
[Sc]
+19.8 +11.1 57 +23  1011.2  742  277           
12 16.03.19 230 (ЮЗ) 10 км    10/10 600 м 
[Sc]
+22 +8.6 42 +22  1009.2  -1.8  741  275           
15 16.03.19 180 (Ю) 10 км    10/10 600 м 
[Sc]
+16.6 +11.2 70 +20  1009.6  741  279    +22.8     
18 16.03.19 340 (С) 10 км    4/0 верхняя 
[Ci ing]
+14.1 +10.3 78 +16  1013  3.1  743  283    +22.8     
21 16.03.19 200 (Ю) 10 км    ясно 
+9.8 +8.1 89 +11  1013.5  0.1  743  288           
00 17.03.19 160 (Ю) 10 км    ясно 
+8.2 +7.4 95 +8  1013.8  0.1  743  289           
03 17.03.19 140 (ЮВ) 10 км    ясно 
+8 +7.1 94 +8  1014.2  0.4  743  290  +7.6        влажная 
06 17.03.19 140 (ЮВ) 10 км    ясно 
+18.6 +10.4 59 +21  1013.9  0.6  744  279  +7.6         
09 17.03.19 160 (Ю) 10 км    ясно 
+25 +5.6 29 +25  1010.4  -2.9  742  273           
12 17.03.19 270 (З) 10 км    ясно 
+27 +2.9 21 +27  1006.1  -4.1  739  270           
15 17.03.19 160 (Ю) 10 км    6/6 600 м 
[Cu hum]
+22.8 +7.7 38 +23  1005.2  -1.2  738  273    +28       
18 17.03.19 160 (Ю) 10 км    8/8 600 м 
[Sc]
+19.3 +7.6 47 +20  1004.6  -0.9  737  276    +28       
21 17.03.19 160 (Ю) 4000 м  пыльный позёмок  10/10 600 м 
[Sc]
+21 +4.3 33 +21  1002.4  -2  735  274           
00 18.03.19 160 (Ю) 1000 м  пыльная буря  10/10 600 м 
[Sc]
+20.4 +2.1 30 +20  1000.8  -1.6  734  275           
03 18.03.19 140 (ЮВ) 10 км    10/10 600 м 
[Sc]
+19.2 +3.2 35 +19  998.3  -2.5  732  275  +19        сухая 
06 18.03.19 250 (З) 10 км    10/10 600 м 
[Sc]
+19.6 +6.2 42 +20  999.8  1.5  734  275  +19         
09 18.03.19 200 (Ю) 10 км    10/10 600 м 
[Sc]
+16 +8.8 62 +16  1001.3  1.2  734  278           
12 18.03.19 180 (Ю) 10 км    9/9 600 м 
[Sc]
+18.8 +6.7 45 +19  1000.6  -0.4  734  276           
15 18.03.19 250 (З) 10 км    6/0 верхняя 
[Ci fib]
+18.6 +2.9 35 +19  1001.8  1.2  735  277    +20       
18 18.03.19 160 (Ю) 10 км    8/4 600 м верхняя 
[Sc|Ci fib]
+11.9 +8.9 82 +12  1004.7  2.2  737  283    +20       
21 18.03.19 290 (З) 10 км    9/9 600 м 
[Sc]
+10.8 +6.1 73 +11  1005.2  0.4  737  285           
00 19.03.19 290 (З) 10 км    10/10 600 м 
[Sc]
+10.4 +6.4 76 +9  1007.5  2.3  739  286           
Время (UTC), дата Ветер
(°,м/с) 
Видим.   Явления Облачность Т
(°С)
Тd
(°С)
f(%) Тe
(°С)
Pmin
(гПа)
dP
(гПа)
Po
(мм)
O2
(г/м3)
Тmin Tmax R s Состояние
почвы

Для получения пояснительной информации подведите курсор к названию столбца.

ПОГОДА в Учаджи - архив

Всё, что Вы хотите узнать о погоде в Учаджи - удобно и подробно!

Выберите нужную дату (начиная с 1 января 2018* года) и нажмите кнопку "Найти".
Будут отображены архивные сводки погоды по пункту Учаджи, начиная с указанной даты.


Отображать данные в формате CSV (для использования в таблицах Excel)


Внимание! Наш архив погоды предназначен исключительно для личного некоммерческого использования в познавательных целях. Если Вам необходимы официальные справки о состоянии погоды (для производственных, юридических, коммерческих и т.п. целей), обращайтесь в органы Росгидромета.

*Примечание: данная дата относится к архиву по метеостанциям СССР (Россия, СНГ, Балтия).
Архив по метеостанциям Зарубежной Европы и Азии (кроме Китая) хранится 10 дней, по другим регионам земного шара (Китай, Африка, Америка, Австралия, Океания) - 1 день.

Учаджи - район местоположения метеостанции


Название, широта, долгота, высота метеостанции:
Учаджи 38.1°ш. 62.8°д. 185 м над ур. моря [Туркменистан]

Дополнительная информация

В oтличие oт бoльшинства пoгoдных сайтoв мы публикуем пoдрoбную метеoинфoрмацию в детальнoм прoфессиoнальнoм фoрмате.

Характеристики температуры и влажнoсти вoздуха измеряются на высoте 2 м в тени вдали oт зданий и деревьев.
Скoрoсть ветра измеряется на высoте 10 м (на урoвне рoста челoвека скoрoсть ветра ниже в 1.5-2 раза). Если метеoстанция нахoдится в гoрoде или в лесу, тo скoрoсть ветра занижена на 2-4 м/с пo сравнению с oткрытым местoм. Скoрoсть ветра над акватoриями крупных рек и oзёр, а также на вершинах хoлмoв на 2-5 м/с выше, чем в oбычных услoвиях.
Атмoсфернoе давление в разных тoчках местнoсти мoжет значительнo oтличаться oт давления на метеoстанции, в зависимoсти oт услoвий рельефа (при пoдъёме на 10 м давление пoнижается примернo на 1 мм рт.ст.).